Weather History for KABR - February, 2012

Change the Weather History Date:

Monday, February 20, 2012

  Actual Average Record
Temperature  
Mean Temperature 30 °F 19 °F  
Max Temperature 38 °F 30 °F 61 °F (1930)
Min Temperature 22 °F 9 °F -30 °F (1918)
Degree Days  
Heating Degree Days 35 46  
Month to date heating degree days 819 979  
Since 1 July heating degree days 5098 6113  
Cooling Degree Days 0 0  
Month to date cooling degree days 0 0  
Year to date cooling degree days 0 0  
Moisture  
Dew Point 30 °F    
Average Humidity 85    
Maximum Humidity 100    
Minimum Humidity 70    
Precipitation  
Precipitation 0.29 in 0.02 in 0.62 in (1955)
Month to date precipitation 0.31 0.35  
Year to date precipitation 1.01 0.82  
Snow  
Snow 1.40 in - - ()
Month to date snowfall 1.5  
Since 1 July snowfall 9.3  
Snow Depth 0.00 in    
Sea Level Pressure  
Sea Level Pressure 29.71 in    
Wind  
Wind Speed 6 mph (SSE)    
Max Wind Speed 16 mph    
Max Gust Speed 21 mph    
Visibility 3 miles    
Events Fog , Rain , Snow    
T = Trace of Precipitation, MM = Missing Value Source: NWS Daily Summary

Daily Weather History Graph

Daily Weather History Graph

Search for Another Location

Airport or City:

Trip Planner

Search our weather history database for the weather conditions in past years. The results will help you decide how hot, cold, wet, or windy it might be!

Date:

Astronomy

Feb. 20, 2012 Rise Set
Actual Time 7:28 AM CST 6:07 PM CST
Civil Twilight 6:57 AM CST 6:37 PM CST
Nautical Twilight 6:23 AM CST 7:12 PM CST
Astronomical Twilight 5:49 AM CST 7:46 PM CST
Moon 6:27 AM CST (2/20) 5:13 PM CST (2/20)
Length of Visible Light 11h 39m
Length of Day
10h 39m
Waning Crescent, 1% of the Moon is Illuminated
Feb 20
Waning Crescent
Feb 21
New
Feb 29
First Quarter
Mar 8
Full
Mar 14
Last Quarter

Hourly Weather History & Observations

Time (CST) Temp. Windchill Dew Point Humidity Pressure Visibility Wind Dir Wind Speed Gust Speed Precip Events Conditions
12:24 AM 37.4 °F 29.8 °F 32.0 °F 81% 29.82 in 10.0 mi South 11.5 mph - N/A   Mostly Cloudy
12:53 AM 37.9 °F 29.6 °F 32.0 °F 79% 29.86 in 10.0 mi South 13.8 mph 18.4 mph N/A   Overcast
1:53 AM 35.1 °F 25.9 °F 28.0 °F 76% 29.86 in 10.0 mi South 13.8 mph - N/A   Overcast
2:10 AM 35.6 °F 26.2 °F 28.4 °F 75% 29.82 in 10.0 mi South 15.0 mph - N/A   Scattered Clouds
2:53 AM 34.0 °F 25.0 °F 27.0 °F 75% 29.85 in 10.0 mi SSE 12.7 mph - N/A   Mostly Cloudy
3:53 AM 34.0 °F 25.0 °F 27.0 °F 75% 29.83 in 10.0 mi SSE 12.7 mph - N/A   Overcast
4:53 AM 34.0 °F 27.2 °F 27.0 °F 75% 29.82 in 10.0 mi South 8.1 mph - N/A   Mostly Cloudy
5:53 AM 35.1 °F 29.3 °F 27.0 °F 72% 29.81 in 10.0 mi SSE 6.9 mph - N/A   Overcast
6:53 AM 35.1 °F 29.3 °F 27.0 °F 72% 29.80 in 10.0 mi SE 6.9 mph - N/A   Overcast
7:17 AM 35.6 °F 29.2 °F 26.6 °F 70% 29.77 in 10.0 mi SSE 8.1 mph - N/A   Overcast
7:53 AM 35.1 °F 27.9 °F 30.9 °F 85% 29.80 in 8.0 mi SSE 9.2 mph - N/A   Overcast
8:31 AM 33.8 °F 26.4 °F 32.0 °F 93% 29.77 in 1.8 mi SSE 9.2 mph - 0.00 in Rain Light Rain
8:49 AM 33.8 °F 27.7 °F 32.0 °F 93% 29.77 in 2.0 mi South 6.9 mph - 0.01 in Rain Light Rain
8:53 AM 34.0 °F 28.8 °F 32.0 °F 92% 29.80 in 2.0 mi South 5.8 mph - 0.01 in Rain Light Rain
9:09 AM 33.8 °F 29.6 °F 32.0 °F 93% 29.75 in 1.5 mi South 4.6 mph - 0.01 in   Overcast
9:29 AM 33.8 °F 30.8 °F 32.0 °F 93% 29.74 in 2.5 mi ESE 3.5 mph - 0.01 in   Overcast
9:44 AM 33.8 °F 30.8 °F 32.0 °F 93% 29.75 in 2.5 mi SE 3.5 mph - 0.01 in   Overcast
9:53 AM 34.0 °F 31.0 °F 32.0 °F 92% 29.78 in 3.0 mi SE 3.5 mph - 0.01 in   Overcast
10:20 AM 33.8 °F 29.6 °F 32.0 °F 93% 29.75 in 4.0 mi SSE 4.6 mph - N/A   Overcast
10:34 AM 33.8 °F 30.8 °F 32.0 °F 93% 29.74 in 2.5 mi SE 3.5 mph - 0.00 in Snow Light Snow
10:50 AM 33.8 °F 29.6 °F 32.0 °F 93% 29.73 in 2.0 mi ESE 4.6 mph - 0.01 in Snow Light Snow
10:53 AM 34.0 °F 31.0 °F 32.0 °F 92% 29.77 in 1.8 mi ESE 3.5 mph - 0.01 in Snow Light Snow
11:01 AM 33.8 °F 30.8 °F 32.0 °F 93% 29.73 in 1.2 mi ESE 3.5 mph - 0.00 in Snow Light Snow
11:07 AM 33.8 °F 30.8 °F 32.0 °F 93% 29.73 in 0.8 mi ESE 3.5 mph - 0.01 in Snow Light Snow
11:18 AM 33.8 °F - 32.0 °F 93% 29.73 in 1.2 mi Calm Calm - 0.01 in Snow Light Snow
11:36 AM 32.0 °F 28.7 °F 32.0 °F 100% 29.73 in 0.5 mi ENE 3.5 mph - 0.02 in Fog , Snow Snow
11:48 AM 32.0 °F 28.7 °F 32.0 °F 100% 29.72 in 0.2 mi ENE 3.5 mph - 0.03 in Fog , Snow Snow
11:53 AM 32.0 °F 28.7 °F 32.0 °F 100% 29.76 in 0.2 mi ENE 3.5 mph - 0.04 in Fog , Snow Snow
12:02 PM 32.0 °F 28.7 °F 32.0 °F 100% 29.71 in 0.2 mi East 3.5 mph - 0.02 in Fog , Snow Snow
12:26 PM 33.8 °F 29.6 °F 32.0 °F 93% 29.70 in 0.5 mi East 4.6 mph - 0.05 in Fog , Snow Light Snow
12:48 PM 33.8 °F 30.8 °F 32.0 °F 93% 29.70 in 1.0 mi East 3.5 mph - 0.06 in Snow Light Snow
12:53 PM 33.1 °F 30.0 °F 32.0 °F 96% 29.73 in 1.0 mi East 3.5 mph - 0.06 in Snow Light Snow
1:07 PM 33.8 °F 29.6 °F 32.0 °F 93% 29.69 in 1.8 mi East 4.6 mph - 0.00 in Snow Light Snow
1:17 PM 33.8 °F 28.6 °F 32.0 °F 93% 29.68 in 2.0 mi East 5.8 mph - 0.00 in Snow Light Snow
1:40 PM 33.8 °F 29.6 °F 32.0 °F 93% 29.67 in 2.5 mi ESE 4.6 mph - 0.00 in Snow Light Snow
1:53 PM 33.1 °F 28.7 °F 32.0 °F 96% 29.70 in 1.8 mi ESE 4.6 mph - 0.00 in Snow Light Snow
1:58 PM 33.8 °F 30.8 °F 32.0 °F 93% 29.66 in 0.8 mi ESE 3.5 mph - 0.00 in Snow Light Snow
2:19 PM 33.8 °F 30.8 °F 32.0 °F 93% 29.66 in 0.8 mi East 3.5 mph - 0.02 in Snow Light Snow
2:35 PM 32.0 °F 28.7 °F 32.0 °F 100% 29.65 in 0.5 mi ENE 3.5 mph - 0.03 in Fog , Snow Light Snow
2:51 PM 32.0 °F - 32.0 °F 100% 29.66 in 0.2 mi Calm Calm - 0.04 in Fog , Snow Snow
2:53 PM 32.0 °F - 32.0 °F 100% 29.70 in 0.2 mi Calm Calm - 0.04 in Fog , Snow Snow
3:53 PM 33.1 °F - 32.0 °F 96% 29.69 in 0.2 mi Calm Calm - 0.07 in Fog , Snow Snow
4:10 PM 33.8 °F 30.8 °F 32.0 °F 93% 29.64 in 0.5 mi North 3.5 mph - 0.01 in Fog , Snow Snow
4:22 PM 33.8 °F 30.8 °F 32.0 °F 93% 29.64 in 0.8 mi North 3.5 mph - 0.02 in Snow Light Snow
4:53 PM 33.1 °F 30.0 °F 32.0 °F 96% 29.68 in 0.8 mi North 3.5 mph - 0.03 in Snow Light Snow
5:28 PM 32.0 °F 27.5 °F 32.0 °F 100% 29.63 in 1.0 mi NNW 4.6 mph - 0.01 in Snow Light Snow
5:53 PM 32.0 °F 27.5 °F 32.0 °F 100% 29.67 in 1.2 mi NW 4.6 mph - 0.02 in Snow Light Snow
6:02 PM 32.0 °F 27.5 °F 32.0 °F 100% 29.63 in 1.5 mi NNW 4.6 mph - 0.00 in Snow Light Snow
6:17 PM 32.0 °F - 32.0 °F 100% 29.64 in 2.5 mi Calm Calm - 0.00 in   Overcast
6:25 PM 32.0 °F 28.7 °F 32.0 °F 100% 29.64 in 3.0 mi NW 3.5 mph - 0.00 in   Overcast
6:53 PM 32.0 °F 26.4 °F 32.0 °F 100% 29.68 in 3.0 mi NW 5.8 mph - 0.00 in   Overcast
7:30 PM 32.0 °F 26.4 °F 32.0 °F 100% 29.65 in 4.0 mi NW 5.8 mph - N/A   Overcast
7:53 PM 32.0 °F 27.5 °F 32.0 °F 100% 29.69 in 4.0 mi NW 4.6 mph - N/A   Overcast
8:10 PM 32.0 °F 28.7 °F 32.0 °F 100% 29.65 in 2.5 mi NW 3.5 mph - 0.00 in Snow Light Snow
8:19 PM 32.0 °F 28.7 °F 32.0 °F 100% 29.65 in 3.0 mi NW 3.5 mph - 0.00 in Snow Light Snow
8:53 PM 30.9 °F 25.2 °F 30.9 °F 100% 29.69 in 4.0 mi WNW 5.8 mph - 0.00 in   Overcast
9:29 PM 28.4 °F 23.3 °F 28.4 °F 100% 29.64 in 2.0 mi West 4.6 mph - N/A   Partly Cloudy
9:40 PM 28.4 °F 22.2 °F 28.4 °F 100% 29.64 in 2.0 mi West 5.8 mph - N/A   Partly Cloudy
9:53 PM 28.0 °F 20.8 °F 28.0 °F 100% 29.68 in 2.0 mi West 6.9 mph - N/A   Partly Cloudy
9:58 PM 26.6 °F 19.1 °F 26.6 °F 100% 29.64 in 1.2 mi West 6.9 mph - N/A   Scattered Clouds
10:00 PM 26.6 °F 20.0 °F 26.6 °F 100% 29.64 in 0.8 mi WSW 5.8 mph - N/A   Mist
10:12 PM 26.6 °F 21.2 °F 26.6 °F 100% 29.64 in 0.2 mi West 4.6 mph - N/A Fog Light Freezing Fog
10:26 PM 24.8 °F 20.5 °F 24.8 °F 100% 29.63 in 0.5 mi WSW 3.5 mph - N/A Fog Light Freezing Fog
10:38 PM 24.8 °F 19.1 °F 24.8 °F 100% 29.63 in 1.5 mi WSW 4.6 mph - N/A   Partly Cloudy
10:47 PM 23.0 °F 18.4 °F 21.2 °F 93% 29.63 in 0.8 mi WSW 3.5 mph - N/A   Clear
10:53 PM 23.0 °F 17.0 °F 21.9 °F 96% 29.67 in 0.5 mi WSW 4.6 mph - N/A Fog Light Freezing Fog
11:02 PM 23.0 °F 18.4 °F 21.2 °F 93% 29.62 in 1.5 mi West 3.5 mph - N/A   Clear
11:06 PM 23.0 °F 17.0 °F 23.0 °F 100% 29.62 in 3.0 mi West 4.6 mph - N/A   Clear
11:25 PM 26.6 °F 16.8 °F 26.6 °F 100% 29.63 in 5.0 mi West 10.4 mph - N/A   Partly Cloudy
11:53 PM 27.0 °F 19.5 °F 27.0 °F 100% 29.67 in 10.0 mi West 6.9 mph - N/A   Partly Cloudy